Wetbulb
65.22 62.44 61.36 58.38 51.27 50.21 50.42 52.29 55.81 55.03 55.64 57.54 56.55 60.32 60.29 59.91 56.69 55.65 73.11 75.28 76.31 78.54 80.34 78.86 77.46 78.07 78.25 78.09 77.84 77.31 76.63 76.43 76.53 76.71 77.01 77.13 77.28 77.16 76.78 76.41 76.96 77.49 76.83 76.20 75.89 75.82 75.42 74.41 73.28
61.33 61.36 58.20 55.91 47.10 45.72 47.88 52.67 52.33 55.43 54.97 55.87 56.73 56.24 55.66 55.91 64.33 68.44 70.70 75.41 75.20 78.82 80.27 79.00 77.49 77.59 78.20 77.89 77.64 77.16 76.96 76.88 76.78 76.96 76.88 77.21 77.08 77.03 76.70 76.63 76.86 77.26 76.57 75.86 75.26 75.00 74.38 73.51 72.83
62.10 61.59 54.36 51.47 48.15 45.39 47.27 50.35 52.04 54.20 54.49 54.34 54.51 55.90 55.46 60.50 64.95 67.42 71.39 75.88 75.16 79.50 79.86 78.93 77.49 77.26 77.77 77.86 77.33 77.25 77.21 77.11 77.16 77.08 77.11 77.16 77.05 76.67 76.33 76.61 77.08 76.92 76.46 75.58 75.09 74.64 73.72 73.25 72.50
60.15 57.20 54.69 48.57 47.32 49.77 48.79 50.87 51.70 52.08 53.57 54.40 54.01 53.57 60.88 65.96 66.87 71.21 75.65 77.21 75.18 79.01 79.85 77.69 77.46 76.93 77.21 77.41 77.35 77.30 77.30 77.33 77.20 77.21 77.23 77.03 76.82 76.52 76.27 76.93 76.96 76.90 76.16 75.61 75.07 74.62 73.17 71.99 71.23
59.50 55.93 48.76 47.66 48.13 49.78 50.54 51.39 52.62 51.62 52.13 52.87 53.41 52.82 54.78 62.77 68.65 71.41 75.42 76.98 76.19 78.24 79.76 78.42 77.41 77.06 76.83 77.06 77.05 77.07 76.92 76.92 76.97 76.98 76.90 76.65 76.32 76.09 76.37 76.70 76.83 76.55 76.02 75.44 75.05 73.52 71.85 71.21 70.74
52.62 54.10 46.71 45.78 47.92 50.14 52.07 53.11 53.00 51.95 53.02 53.19 52.54 53.05 55.69 59.00 66.85 71.09 75.16 77.45 77.39 78.03 79.19 78.49 77.30 76.88 76.53 76.53 76.53 76.52 76.33 76.46 76.49 76.37 76.37 76.32 75.94 76.09 76.44 76.70 76.88 76.50 75.82 75.23 73.87 72.07 71.68 71.22 70.76
51.26 49.51 46.32 46.55 46.93 48.56 50.68 53.38 52.24 52.25 52.29 53.02 54.88 51.64 55.79 57.43 65.55 69.54 73.85 76.74 76.42 77.86 77.72 77.62 77.70 76.76 76.45 76.22 76.04 76.01 75.90 75.83 75.78 75.66 75.71 75.86 76.16 76.38 76.51 76.61 76.37 75.73 75.28 74.01 72.58 72.07 71.42 70.54 70.38
53.49 51.11 46.20 47.28 46.21 47.12 52.71 51.51 52.34 52.13 51.89 54.95 55.60 52.05 53.35 57.00 63.31 68.43 71.87 75.95 76.20 76.58 76.79 77.12 78.09 76.56 75.04 75.06 75.92 75.73 75.76 75.58 75.45 75.52 75.70 75.72 75.91 75.90 75.84 75.28 75.77 75.13 74.27 73.19 72.57 71.88 70.88 71.32 71.75
52.78 46.74 44.76 46.56 47.00 48.52 51.69 49.62 52.38 52.54 51.47 52.73 53.90 54.50 56.38 56.85 60.79 63.42 69.32 72.78 75.53 76.73 75.87 76.22 77.64 76.90 75.51 74.58 75.47 75.55 75.25 75.14 75.16 75.28 75.40 74.65 73.18 73.95 75.22 75.20 75.02 74.45 73.68 73.05 72.15 71.72 72.01 72.41 72.61
48.65 45.35 44.91 48.34 49.01 48.32 49.04 49.24 49.88 49.24 49.79 50.26 52.01 54.28 55.28 56.28 57.96 58.99 60.15 66.53 72.04 72.36 74.52 75.34 76.73 77.42 76.13 74.76 75.02 74.34 74.56 73.70 73.31 73.64 73.89 72.24 73.81 73.99 73.77 75.02 74.40 73.90 73.45 72.90 72.63 72.91 73.03 72.80 70.91
47.93 44.93 47.04 47.19 48.71 49.46 48.91 49.07 50.75 49.20 48.07 50.39 50.26 52.89 54.43 55.25 56.47 57.26 58.45 62.71 66.42 72.84 73.40 74.42 75.46 77.03 76.64 75.53 74.59 74.00 74.22 74.17 74.47 74.46 73.73 73.88 74.09 75.00 74.57 74.29 73.25 73.60 73.21 72.84 73.08 73.65 72.19 71.62 72.60
45.94 47.51 48.05 48.64 49.70 49.11 48.30 50.25 48.79 49.51 50.13 52.45 52.98 53.86 54.13 54.44 55.24 56.17 57.36 58.94 63.10 69.71 73.98 73.64 74.73 76.54 76.55 75.98 75.26 74.96 74.09 74.47 74.40 74.96 75.38 74.50 73.96 74.15 73.42 72.75 72.38 73.31 72.70 73.88 72.74 72.47 73.36 73.79 74.03
46.13 46.98 48.27 49.20 49.32 48.96 49.43 47.76 48.01 48.57 51.22 52.67 53.12 53.35 53.34 54.23 55.46 56.50 57.54 60.71 62.90 67.06 72.75 74.00 74.88 76.09 75.90 76.41 75.63 75.33 74.73 74.18 74.23 74.72 75.33 74.61 72.88 73.50 73.45 72.92 72.25 72.46 73.16 72.72 72.57 73.67 73.92 73.78 74.07
47.74 47.66 47.91 48.93 48.63 49.29 47.82 47.80 48.21 48.78 50.67 50.57 52.06 53.05 53.80 54.33 55.09 56.08 56.74 59.05 63.41 65.27 69.56 74.52 75.59 76.84 77.03 76.17 76.14 75.31 75.32 74.95 74.22 74.18 74.47 74.49 73.41 73.40 72.71 72.86 71.90 71.62 73.30 73.64 73.97 74.77 74.16 74.04 74.92
48.79 45.99 47.46 47.95 48.35 47.82 49.50 46.04 46.86 50.84 50.89 51.19 51.88 52.61 53.76 54.93 55.65 55.67 56.88 57.88 60.25 65.11 67.90 72.75 75.33 76.81 76.89 76.75 76.09 75.44 75.44 75.00 74.20 73.85 74.83 74.21 74.05 73.79 73.29 71.64 70.57 72.71 74.32 75.71 75.63 75.50 75.35 74.83 75.21
46.67 46.52 42.88 46.95 48.02 48.64 48.19 43.21 48.87 51.56 51.71 51.08 51.94 52.34 53.00 54.26 55.10 55.67 56.74 58.48 60.18 63.83 66.25 71.08 73.80 75.55 76.37 76.32 76.17 75.22 75.64 75.09 74.66 74.25 74.34 74.24 73.76 73.45 72.92 70.69 71.49 74.91 75.00 74.55 74.60 74.96 74.60 74.33 74.04
45.99 41.17 42.59 44.51 48.37 48.09 47.22 44.60 49.57 51.78 51.80 51.36 52.43 53.10 53.09 54.04 55.49 56.66 57.46 59.06 60.14 61.78 65.64 69.90 73.69 74.85 76.21 77.04 76.43 75.80 76.18 74.99 74.12 74.21 73.79 73.95 73.00 72.77 71.90 70.03 74.11 75.59 74.33 74.13 74.40 74.14 73.65 73.36 73.05
40.54 40.95 42.66 42.47 46.47 47.19 45.86 45.78 49.11 51.03 50.90 51.04 52.09 53.02 53.47 53.66 54.80 56.60 57.81 59.14 60.37 61.96 63.76 68.53 71.65 74.65 75.71 75.48 76.17 75.21 74.91 74.39 74.24 73.54 73.30 73.18 72.70 71.64 71.75 72.06 74.43 75.70 74.04 73.88 73.46 73.85 74.21 73.27 72.35
43.86 42.54 41.86 44.83 47.30 45.41 45.22 45.97 48.18 50.48 51.04 50.96 51.77 52.55 53.35 54.27 55.71 57.00 57.90 58.74 59.89 61.76 63.18 65.67 67.85 71.41 75.42 73.34 73.38 73.13 73.01 72.97 72.95 73.21 73.43 73.11 71.95 73.61 74.02 73.65 74.98 75.30 73.87 73.80 74.57 73.81 72.47 70.77 71.66
43.43 42.18 42.30 45.26 47.02 46.18 45.56 45.50 48.82 50.18 50.68 51.55 52.03 52.58 53.10 54.24 55.34 56.13 57.33 58.08 60.01 61.68 63.47 67.11 69.14 71.44 74.31 72.90 74.61 74.40 73.89 73.30 73.24 73.18 73.02 72.91 71.43 73.86 74.29 74.76 74.74 74.79 73.23 74.51 74.03 73.26 70.73 69.29 68.38
43.60 42.42 42.75 41.88 45.09 46.70 45.98 44.47 46.77 48.79 50.68 51.98 52.86 53.76 54.25 54.30 54.76 55.89 56.58 57.48 58.64 60.40 62.81 65.54 70.04 72.06 73.51 75.23 73.50 72.81 74.03 73.32 72.01 72.09 71.60 71.51 70.97 73.04 75.19 75.59 74.85 74.96 74.39 73.12 73.36 72.08 70.81 67.04 65.14
40.22 45.32 43.91 42.68 42.12 38.76 45.75 36.73 44.87 47.79 48.79 49.97 51.24 52.80 53.45 54.46 55.36 56.08 56.64 57.30 58.47 59.63 61.31 65.09 69.35 72.20 72.09 74.07 73.29 73.18 72.09 70.73 71.25 71.53 71.51 70.94 71.79 73.66 75.23 75.29 74.62 74.06 73.18 71.99 71.06 70.65 69.42 67.78 64.58
41.58 45.50 44.45 43.89 42.22 41.57 41.69 39.57 43.45 47.65 46.16 47.89 49.44 50.80 52.76 53.92 55.03 55.11 55.96 57.15 58.47 59.44 60.17 63.84 68.54 71.29 71.64 73.03 73.53 71.95 73.05 72.30 71.80 71.02 73.31 72.51 73.60 74.48 74.34 74.20 73.34 71.23 69.68 68.19 65.76 64.87 64.83 63.71 62.07
46.37 44.42 43.64 43.59 41.91 35.92 41.49 40.72 42.46 45.53 45.96 48.01 50.36 51.24 51.39 52.47 53.69 55.34 56.85 57.54 57.95 59.17 59.74 61.58 66.57 70.33 71.12 72.17 72.71 71.76 72.71 73.49 71.19 71.90 71.69 72.46 73.08 72.70 73.00 71.24 68.56 67.69 65.86 64.27 62.32 62.90 61.96 61.20 60.99
44.79 41.40 34.26 34.22 33.90 34.73 42.10 39.07 42.26 47.14 48.55 48.96 48.98 50.90 52.36 53.28 54.06 54.73 55.10 55.90 57.36 58.06 59.09 59.92 63.96 68.21 70.37 71.03 71.57 73.28 73.86 74.73 72.97 71.16 70.12 69.03 66.89 67.97 66.15 67.91 64.10 61.96 61.75 62.31 61.55 60.57 60.07 59.41 57.02
41.20 39.25 32.75 26.75 32.27 35.86 41.73 36.22 44.19 47.53 49.34 50.23 51.36 52.53 52.54 53.42 55.46 55.01 55.91 56.76 56.81 57.91 59.43 59.69 63.06 66.87 69.67 70.32 70.85 73.08 73.96 72.75 72.72 71.94 70.48 66.42 68.18 67.48 65.43 61.58 64.08 63.10 59.80 59.90 58.49 57.38 56.31 56.09 55.56
39.80 37.58 42.32 36.69 37.69 32.14 37.70 42.12 46.01 48.04 47.75 49.66 50.24 51.39 52.56 54.07 54.38 55.30 56.48 57.53 58.43 59.47 60.40 60.50 61.73 66.09 68.83 68.93 70.07 71.36 74.32 73.73 72.27 71.96 69.45 70.21 69.65 66.98 65.28 64.02 61.75 61.02 60.25 57.83 55.92 53.41 53.85 55.74 56.39
43.10 44.66 36.46 37.05 28.78 28.55 36.99 38.48 39.85 43.42 45.30 47.67 48.76 50.38 52.48 53.32 53.73 54.68 55.93 57.05 58.82 60.51 60.90 61.06 61.94 64.66 68.35 69.11 71.00 69.61 72.66 73.27 71.33 69.21 68.13 65.72 66.38 66.01 63.37 61.56 61.17 60.32 58.94 56.27 55.30 55.84 56.92 55.97 55.72
39.65 38.01 38.08 39.21 36.93 31.05 31.66 37.03 45.90 44.52 46.66 47.02 48.76 49.95 51.73 52.83 53.51 54.71 55.97 56.87 58.07 59.50 60.48 60.97 61.19 63.31 66.69 68.87 70.52 68.69 69.81 70.38 69.34 69.26 66.22 65.48 64.99 63.59 62.09 61.54 59.69 57.73 57.35 57.26 56.08 55.67 56.27 56.03 55.94
43.47 40.29 39.88 34.42 33.83 37.02 36.44 36.20 47.65 46.76 47.98 49.00 48.88 49.97 51.46 52.72 53.73 54.53 55.59 56.78 57.15 57.84 59.44 60.65 61.55 62.36 66.80 68.35 69.77 70.77 67.88 68.99 69.24 66.51 65.13 63.75 64.44 63.68 60.89 59.44 58.79 57.48 57.49 57.58 56.27 55.11 54.75 54.23 53.70
MSLP
1010.82 1010.00 1009.42 1008.18 1006.46 1004.03 1001.70 1001.02 1001.70 1001.51 1001.66 1002.01 1002.30 1001.90 1001.41 1001.51 1001.56 1001.87 1003.28 1003.90 1004.17 1004.16 1004.65 1006.46 1007.23 1007.85 1008.01 1008.04 1008.05 1008.69 1009.06 1009.32 1009.65 1010.13 1010.61 1011.00 1011.16 1011.47 1011.70 1012.05 1012.38 1012.64 1012.73 1012.98 1013.17 1013.40 1013.52 1013.68 1013.87
1010.24 1009.76 1008.78 1006.70 1004.93 1002.24 1001.12 1001.24 1002.12 1001.81 1002.74 1002.89 1002.44 1002.16 1002.16 1001.89 1003.70 1002.71 1003.19 1004.25 1004.72 1004.53 1005.44 1005.50 1007.23 1007.84 1008.12 1008.45 1008.48 1008.86 1009.35 1009.56 1009.87 1010.32 1010.82 1011.26 1011.51 1011.71 1011.89 1012.24 1012.63 1012.88 1013.00 1013.22 1013.47 1013.66 1013.77 1013.84 1013.95
1010.33 1009.58 1007.29 1005.31 1003.62 1001.96 1001.04 1001.87 1002.21 1003.10 1003.49 1003.26 1002.85 1002.92 1003.07 1003.35 1004.17 1004.23 1004.20 1004.33 1004.62 1005.08 1005.77 1006.24 1007.14 1007.80 1008.25 1008.62 1008.75 1009.16 1009.54 1009.75 1010.08 1010.46 1010.89 1011.30 1011.64 1011.97 1012.26 1012.50 1012.79 1013.08 1013.24 1013.51 1013.68 1013.87 1014.06 1014.16 1014.20
1009.30 1008.50 1007.38 1005.31 1002.94 1002.47 1002.73 1003.26 1004.34 1003.74 1003.61 1003.84 1003.75 1003.13 1004.00 1005.09 1005.05 1005.02 1004.74 1004.51 1004.51 1005.13 1005.78 1006.97 1007.73 1008.02 1008.34 1008.84 1009.19 1009.49 1009.90 1010.00 1010.33 1010.73 1011.10 1011.48 1011.79 1012.18 1012.57 1012.81 1012.96 1013.16 1013.44 1013.69 1013.89 1014.02 1014.16 1014.29 1014.40
1009.14 1007.54 1005.52 1004.38 1003.19 1002.95 1004.54 1004.90 1004.93 1004.25 1004.01 1003.85 1004.16 1003.24 1003.91 1005.09 1005.42 1005.26 1004.87 1004.69 1004.54 1004.92 1005.56 1007.18 1008.12 1008.42 1008.57 1009.02 1009.45 1009.70 1009.96 1010.29 1010.67 1011.13 1011.48 1011.77 1012.09 1012.40 1012.74 1012.99 1013.28 1013.49 1013.61 1013.76 1013.94 1014.13 1014.22 1014.32 1014.38
1008.08 1007.15 1005.05 1003.60 1003.30 1004.05 1005.05 1005.60 1005.36 1004.79 1004.48 1004.18 1004.25 1004.35 1003.85 1004.88 1005.27 1005.13 1005.17 1004.74 1004.60 1004.80 1005.52 1007.20 1008.17 1008.71 1008.91 1009.32 1009.74 1009.93 1010.16 1010.47 1010.79 1011.22 1011.66 1011.92 1012.22 1012.50 1012.85 1013.21 1013.27 1013.45 1013.67 1013.82 1013.98 1014.12 1014.24 1014.38 1014.40
1007.72 1006.65 1004.90 1003.99 1003.70 1004.36 1004.88 1006.27 1005.75 1005.39 1005.12 1004.63 1005.13 1004.54 1003.84 1004.65 1005.56 1005.20 1005.17 1005.24 1005.61 1005.02 1005.82 1007.09 1007.71 1008.72 1009.22 1009.72 1009.96 1010.31 1010.55 1010.77 1011.01 1011.37 1011.74 1012.19 1012.51 1012.78 1012.91 1013.17 1013.40 1013.57 1013.76 1013.80 1014.01 1014.14 1014.33 1014.28 1014.37
1008.48 1007.28 1005.59 1005.37 1004.82 1004.79 1005.66 1006.68 1006.81 1006.54 1005.64 1005.86 1005.64 1004.19 1004.32 1005.28 1005.78 1005.35 1005.46 1005.47 1005.79 1006.34 1006.13 1006.93 1007.02 1007.92 1008.66 1009.33 1010.08 1010.66 1010.95 1011.14 1011.42 1011.62 1011.89 1012.24 1012.65 1013.02 1013.28 1013.42 1013.60 1013.59 1013.73 1013.91 1014.05 1014.10 1014.23 1014.30 1014.19
1009.41 1007.48 1005.79 1005.46 1005.99 1005.63 1006.36 1006.55 1006.40 1007.14 1006.80 1005.90 1005.73 1005.34 1005.22 1005.66 1005.76 1005.34 1005.46 1005.57 1006.48 1006.46 1006.78 1007.06 1006.81 1007.31 1007.70 1008.42 1009.69 1010.62 1011.11 1011.39 1011.56 1011.76 1012.12 1012.33 1011.86 1012.49 1012.91 1012.98 1013.52 1013.83 1013.92 1014.00 1014.05 1014.16 1014.11 1014.03 1013.88
1008.70 1007.64 1006.48 1007.43 1007.64 1007.52 1007.41 1007.22 1006.79 1006.99 1006.44 1005.93 1005.61 1005.32 1005.43 1005.60 1005.76 1005.47 1005.16 1005.30 1006.24 1007.26 1007.31 1007.50 1007.57 1007.12 1007.20 1007.89 1009.07 1009.46 1010.28 1010.75 1011.01 1011.22 1011.77 1011.39 1011.42 1011.87 1012.03 1012.75 1013.54 1013.82 1014.01 1014.06 1014.01 1014.01 1013.96 1013.77 1012.30
1009.31 1008.07 1008.45 1008.72 1008.93 1008.87 1008.29 1007.72 1007.16 1006.89 1006.27 1005.88 1005.89 1005.69 1005.59 1005.77 1005.74 1005.89 1005.53 1005.78 1005.67 1007.06 1007.82 1007.94 1007.94 1007.65 1007.31 1007.59 1008.42 1008.82 1009.44 1010.00 1010.43 1010.89 1011.45 1011.26 1011.64 1011.97 1012.07 1012.32 1012.87 1012.98 1013.72 1012.99 1013.31 1013.17 1012.84 1012.23 1012.08
1009.49 1009.60 1009.38 1009.11 1009.31 1009.24 1008.79 1008.18 1007.55 1006.90 1006.37 1006.56 1006.41 1006.27 1005.91 1005.70 1005.39 1005.64 1005.73 1005.68 1005.99 1006.71 1007.30 1007.84 1007.90 1007.83 1007.48 1007.34 1008.03 1008.33 1008.64 1009.46 1009.87 1010.37 1011.03 1011.26 1011.89 1011.91 1011.76 1011.68 1011.82 1012.37 1012.22 1012.36 1012.67 1012.12 1012.46 1012.60 1012.42
1009.62 1009.65 1009.80 1009.57 1009.35 1008.86 1008.81 1008.25 1007.62 1006.85 1006.49 1006.29 1006.22 1006.21 1005.86 1005.38 1005.26 1005.30 1005.49 1005.98 1006.08 1006.49 1006.71 1007.53 1007.68 1007.69 1007.64 1007.48 1007.64 1008.10 1008.37 1009.09 1009.32 1009.98 1010.61 1010.91 1011.37 1011.67 1011.71 1011.75 1011.75 1011.69 1011.86 1012.11 1012.30 1012.17 1012.28 1012.20 1012.12
1010.00 1009.96 1009.60 1009.24 1008.84 1008.66 1008.37 1007.73 1007.41 1006.85 1006.44 1005.98 1005.98 1006.02 1005.83 1005.47 1005.13 1004.93 1005.00 1005.35 1005.90 1006.08 1006.44 1006.50 1007.13 1007.29 1007.68 1007.70 1007.60 1008.00 1008.19 1008.55 1009.12 1009.58 1010.05 1010.74 1010.86 1011.27 1011.50 1011.86 1012.05 1011.84 1011.90 1011.82 1011.96 1012.05 1012.24 1012.05 1011.85
1010.21 1009.63 1008.79 1008.39 1008.55 1008.33 1008.08 1007.13 1006.17 1006.39 1005.98 1005.89 1005.66 1005.47 1005.39 1005.36 1005.05 1004.66 1004.57 1004.71 1004.84 1005.61 1006.08 1006.52 1006.63 1006.96 1007.27 1007.57 1007.90 1007.85 1008.02 1008.05 1008.72 1009.13 1009.96 1010.48 1010.74 1011.16 1011.43 1011.55 1011.71 1011.56 1011.70 1012.25 1012.38 1012.40 1012.19 1012.11 1012.19
1009.35 1009.06 1007.64 1007.22 1007.91 1007.92 1008.23 1005.64 1005.22 1005.86 1005.97 1005.47 1005.14 1004.94 1004.91 1004.84 1004.71 1004.31 1004.11 1004.29 1004.60 1005.05 1005.53 1006.16 1006.13 1006.63 1006.97 1007.18 1007.57 1007.54 1007.54 1008.02 1008.31 1008.70 1009.68 1010.36 1010.78 1010.97 1011.52 1011.54 1011.52 1011.45 1011.57 1011.68 1011.98 1012.12 1012.10 1012.18 1012.34
1008.01 1007.58 1007.30 1007.08 1007.63 1007.46 1007.25 1005.51 1005.23 1005.46 1005.42 1004.96 1004.56 1004.33 1004.05 1003.95 1003.96 1003.96 1003.72 1003.86 1004.14 1004.58 1005.15 1005.49 1005.76 1006.07 1006.48 1006.72 1007.07 1007.51 1007.71 1007.98 1008.43 1008.65 1009.01 1009.99 1010.52 1010.76 1010.92 1011.02 1011.28 1011.78 1011.48 1011.66 1011.96 1012.14 1012.34 1012.06 1012.23
1007.68 1007.71 1007.41 1007.04 1006.95 1006.84 1006.13 1005.05 1004.61 1004.54 1004.33 1004.05 1003.77 1003.55 1003.30 1003.14 1003.10 1003.25 1003.20 1003.32 1003.61 1004.06 1004.58 1005.05 1005.26 1005.59 1006.00 1006.22 1006.73 1007.07 1007.52 1008.05 1008.34 1008.83 1009.00 1009.89 1010.31 1010.57 1010.90 1010.82 1011.18 1011.48 1011.40 1011.56 1012.01 1012.12 1012.29 1012.45 1012.50
1008.74 1008.35 1007.54 1007.10 1006.91 1006.64 1005.69 1004.50 1003.74 1003.70 1003.27 1002.95 1002.67 1002.46 1002.40 1002.26 1002.42 1002.67 1002.80 1002.90 1003.21 1003.67 1004.02 1004.48 1004.89 1005.07 1005.47 1006.01 1006.36 1006.57 1006.62 1007.24 1007.96 1008.41 1008.94 1009.62 1010.01 1010.24 1010.61 1010.63 1011.18 1011.40 1011.42 1011.57 1012.30 1012.54 1012.46 1012.60 1012.75
1008.60 1007.99 1007.16 1006.59 1006.38 1006.37 1005.13 1003.23 1002.75 1002.37 1001.93 1001.76 1001.61 1001.39 1001.42 1001.44 1001.68 1001.92 1002.29 1002.34 1002.58 1003.03 1003.55 1003.84 1004.22 1004.61 1004.93 1005.55 1005.57 1005.68 1005.90 1006.61 1007.09 1007.64 1008.66 1009.21 1009.28 1010.08 1010.22 1010.37 1010.89 1011.32 1011.36 1012.11 1012.54 1012.59 1012.43 1012.92 1013.19
1007.99 1007.44 1006.92 1006.77 1006.72 1006.06 1004.30 1002.13 1000.39 1000.91 1001.03 1000.84 1000.88 1000.90 1000.83 1000.82 1000.83 1001.11 1001.53 1001.73 1001.92 1002.17 1002.85 1003.14 1003.58 1004.05 1004.58 1004.87 1005.56 1005.98 1006.14 1006.46 1007.15 1007.28 1008.60 1008.59 1008.95 1009.93 1010.03 1010.38 1010.96 1011.27 1011.74 1012.04 1012.84 1012.86 1012.74 1012.75 1013.27
1007.65 1007.64 1007.55 1007.14 1006.53 1004.77 1004.40 1001.48 1000.70 1000.11 999.99 1000.04 1000.06 1000.11 1000.24 1000.33 1000.62 1000.73 1000.83 1001.06 1001.39 1001.58 1001.96 1002.49 1003.07 1003.72 1004.55 1004.71 1005.00 1005.27 1005.35 1005.65 1006.09 1006.48 1007.51 1007.99 1009.02 1009.87 1010.06 1010.17 1011.37 1011.65 1012.08 1012.66 1013.45 1013.59 1013.38 1013.45 1012.55
1008.12 1008.37 1008.04 1007.26 1006.17 1005.06 1003.75 1002.20 999.98 999.77 999.25 999.62 1000.09 1000.11 1000.03 1000.02 1000.15 1000.19 1000.36 1000.45 1000.83 1001.12 1001.33 1001.87 1002.48 1003.16 1004.19 1004.48 1004.39 1004.96 1004.74 1005.25 1005.93 1007.21 1006.99 1007.33 1008.95 1009.97 1009.77 1010.37 1011.47 1012.24 1012.49 1013.18 1013.59 1014.49 1014.60 1014.52 1013.68
1009.11 1008.49 1007.60 1006.53 1005.54 1003.97 1002.00 1001.53 999.56 999.26 999.48 999.66 999.88 999.87 1000.07 1000.04 1000.03 1000.17 1000.10 1000.05 1000.29 1000.56 1000.91 1001.55 1001.97 1002.52 1003.65 1004.10 1004.18 1004.45 1004.30 1004.71 1005.54 1006.19 1006.27 1007.72 1008.60 1010.12 1010.40 1011.14 1011.91 1012.41 1013.30 1013.59 1013.74 1014.25 1015.14 1015.44 1014.39
1008.94 1008.34 1007.29 1005.43 1004.56 1003.21 1002.58 1002.15 1000.18 999.85 999.97 1000.11 1000.22 1000.16 1000.02 1000.06 1000.04 999.89 999.92 999.95 1000.17 1000.23 1000.43 1001.27 1001.56 1002.15 1003.11 1003.65 1003.73 1003.81 1004.00 1004.52 1005.43 1005.24 1006.59 1007.98 1008.81 1010.63 1011.29 1012.07 1012.59 1012.91 1013.27 1014.12 1015.02 1014.66 1015.60 1015.22 1015.28
1009.31 1009.37 1008.70 1006.91 1004.62 1003.15 1002.50 1001.15 999.56 1000.31 1000.49 1000.64 1000.46 1000.20 1000.38 1000.33 1000.00 1000.15 1000.05 1000.07 1000.00 1000.11 1000.43 1001.00 1001.13 1001.58 1002.63 1003.11 1003.46 1003.27 1003.40 1004.06 1004.24 1004.77 1006.73 1008.07 1008.58 1009.65 1011.11 1012.83 1013.17 1013.69 1013.95 1014.77 1016.06 1015.28 1016.27 1015.14 1015.16
1009.40 1009.26 1009.20 1008.74 1007.38 1005.64 1003.13 1000.91 1000.49 1000.06 1000.26 1000.83 1000.74 1000.40 1000.55 1000.69 1000.63 1000.59 1000.57 1000.49 1000.52 1000.56 1000.60 1000.79 1000.87 1001.09 1001.82 1002.79 1003.22 1002.98 1002.72 1003.18 1003.43 1005.46 1006.80 1008.82 1008.83 1010.34 1011.79 1013.01 1013.33 1014.37 1014.53 1015.65 1015.81 1016.24 1015.81 1015.41 1015.73
1009.37 1008.97 1009.15 1009.18 1007.23 1004.38 1001.45 1000.11 998.90 999.49 1000.03 1000.40 1000.81 1001.02 1001.27 1001.20 1000.99 1000.97 1000.96 1000.92 1000.99 1000.92 1000.70 1000.91 1000.81 1000.73 1001.51 1002.29 1002.73 1002.90 1002.64 1003.10 1004.51 1005.46 1006.99 1008.52 1010.11 1010.96 1011.98 1012.98 1013.59 1014.60 1014.93 1015.58 1015.76 1015.73 1016.13 1016.26 1016.39
1009.87 1009.33 1009.78 1009.32 1008.11 1005.52 1002.74 1000.42 1000.31 1000.46 1000.68 1000.91 1001.05 1001.69 1001.52 1001.67 1001.61 1001.57 1001.35 1001.06 1000.95 1000.74 1000.43 1000.61 1000.79 1000.67 1000.89 1001.84 1002.23 1002.89 1002.92 1003.66 1004.49 1005.70 1007.56 1008.45 1010.25 1011.04 1011.78 1012.82 1013.38 1014.37 1014.92 1015.79 1016.08 1016.23 1016.54 1016.74 1017.22
1008.79 1008.81 1009.27 1009.19 1007.39 1006.29 1004.36 1001.55 1001.11 1001.03 1000.99 1001.51 1001.78 1002.01 1002.20 1002.33 1002.03 1001.63 1001.46 1001.22 1001.21 1000.76 1000.44 1000.23 1000.66 1000.47 1000.44 1001.00 1001.76 1002.67 1002.98 1003.39 1004.73 1005.94 1007.25 1008.79 1010.49 1011.77 1012.05 1013.04 1013.78 1014.58 1015.04 1015.56 1015.67 1016.33 1017.05 1017.52 1017.67
Wind_Speed
11 6 5 7 9 7 13 8 6 7 7 3 5 8 11 11 8 6 10 7 8 13 19 19 14 13 15 15 18 17 17 18 19 18 17 16 16 16 15 13 12 11 12 10 9 8 8 6 5
5 5 6 3 9 12 11 8 12 3 5 7 8 7 9 5 14 6 11 12 2 10 15 21 15 15 16 16 18 18 18 19 19 18 18 16 15 15 15 13 12 11 10 9 8 7 6 5 5
6 6 6 6 10 13 12 7 8 2 3 4 5 3 6 6 13 11 15 14 4 12 14 15 18 16 16 16 17 17 18 19 19 18 17 16 15 14 13 13 12 10 10 8 8 6 4 4 3
5 6 5 10 13 10 8 5 1 5 5 1 5 6 7 8 12 13 14 10 4 13 15 18 15 15 16 15 15 16 16 18 18 17 17 16 15 13 12 12 11 10 10 8 7 6 4 3 2
6 4 9 13 15 6 3 3 5 6 4 5 5 3 5 8 11 13 11 5 5 12 14 16 13 14 16 16 16 16 16 17 16 15 15 15 14 13 12 11 10 9 9 8 7 5 4 3 2
6 6 10 14 15 8 5 2 8 6 5 6 6 9 2 5 13 12 11 9 3 11 13 15 14 13 14 15 14 15 15 16 16 16 15 14 13 13 12 10 10 9 9 7 6 6 4 2 2
12 8 15 14 8 10 7 2 3 7 7 9 8 9 4 9 12 11 9 5 6 5 12 15 16 14 13 12 12 12 14 14 15 14 14 13 12 11 11 11 10 9 8 8 6 4 3 3 3
6 7 7 11 11 16 8 5 1 7 10 7 10 6 4 12 9 10 9 6 7 3 9 12 15 16 15 14 12 11 11 13 13 13 14 14 12 11 9 8 8 9 8 6 5 4 3 3 6
4 8 11 12 10 11 1 10 4 1 14 14 10 12 12 8 9 7 3 4 3 5 5 10 12 16 15 15 14 13 13 12 13 13 13 13 10 12 13 6 11 7 6 5 4 3 3 7 11
7 8 6 8 5 9 9 12 13 9 11 11 15 11 6 6 5 9 7 4 5 5 4 8 10 14 15 12 15 13 12 11 10 10 12 10 9 10 9 9 8 6 5 4 4 5 7 10 9
2 8 3 4 4 8 11 14 14 12 14 10 9 14 12 11 7 7 7 4 4 7 6 6 10 12 14 12 11 8 8 8 8 10 11 7 7 7 7 6 7 7 8 7 10 9 8 5 5
9 2 5 3 8 10 14 14 18 18 16 12 11 13 15 13 10 7 8 5 3 7 11 10 11 13 13 10 10 10 9 9 8 10 11 7 6 7 7 5 6 4 5 2 5 4 3 5 6
10 2 6 9 13 15 13 18 20 22 18 17 15 13 16 16 13 10 6 7 6 7 10 13 13 13 12 12 11 10 9 9 10 10 11 8 8 7 7 5 5 4 3 5 4 4 4 4 6
3 9 12 12 12 9 12 14 13 16 19 19 13 15 14 17 18 16 11 10 9 8 10 13 17 16 15 13 13 11 9 11 9 9 10 12 9 7 7 6 6 5 4 4 3 3 4 5 5
10 13 11 7 7 12 9 18 22 15 13 14 18 15 14 15 18 19 15 14 11 10 10 14 12 16 17 16 13 11 11 11 10 9 10 12 10 8 6 6 6 5 5 3 4 5 4 4 3
11 10 10 5 6 8 9 19 18 7 13 16 19 17 16 15 15 19 17 10 11 11 12 13 13 14 18 17 14 11 11 10 10 9 9 11 10 9 8 6 6 5 4 5 4 3 2 3 4
12 9 14 12 7 14 12 19 14 6 15 19 18 18 17 16 14 14 15 12 10 9 12 14 15 15 17 16 13 12 12 10 9 9 9 12 11 11 8 7 6 5 4 4 4 3 3 3 4
16 17 16 17 12 15 20 24 22 20 20 20 19 19 18 17 16 13 14 13 10 8 10 14 14 14 14 12 10 11 10 10 9 9 8 11 8 11 9 8 6 6 5 4 5 4 2 4 4
15 18 20 19 16 17 20 24 24 21 21 21 21 20 20 19 18 14 15 13 10 8 9 13 14 15 11 10 12 12 13 12 11 9 13 12 11 12 10 8 8 7 6 5 5 5 4 2 2
18 20 21 18 15 17 23 28 24 23 24 24 21 21 20 19 18 17 16 15 11 9 9 11 14 15 13 9 11 11 12 12 11 11 12 14 12 11 10 8 8 6 5 5 6 5 3 1 3
19 19 20 20 19 20 22 24 17 4 9 13 15 16 17 19 18 18 17 16 14 11 9 10 13 13 13 17 9 5 8 9 11 12 11 11 12 11 9 8 5 7 4 5 4 4 5 4 3
20 16 18 18 17 13 15 12 18 12 12 8 7 10 12 16 17 16 17 18 16 14 10 9 10 12 13 17 13 15 14 12 12 11 12 11 11 12 10 8 6 5 3 4 2 2 1 5 5
18 9 14 16 18 21 19 15 7 7 8 6 5 2 8 10 14 18 19 18 17 15 13 10 9 13 12 16 15 12 16 13 11 11 15 13 12 11 11 11 9 8 5 7 8 5 4 3 3
7 12 18 21 16 14 15 15 7 4 8 3 10 6 3 3 5 11 15 15 14 15 14 12 11 12 12 17 18 15 15 13 14 15 12 11 10 8 9 11 10 10 9 8 9 8 6 5 7
10 13 9 6 6 10 6 9 13 12 15 11 6 6 6 7 9 9 12 14 14 14 14 11 13 13 14 16 17 20 19 16 17 16 12 14 10 8 10 11 9 7 10 9 7 9 5 6 6
19 13 7 7 9 13 10 9 1 4 8 7 9 11 6 3 1 4 5 8 9 9 10 10 12 13 15 17 16 18 19 14 13 16 13 8 12 10 13 8 11 11 12 10 3 7 4 7 7
1 7 9 6 18 11 10 12 13 8 5 6 6 2 2 1 3 3 4 6 7 8 8 9 12 12 12 14 13 16 18 18 16 16 13 9 12 13 15 13 12 11 12 8 8 5 7 10 9
15 7 7 5 6 9 8 12 9 6 1 3 4 2 1 3 5 6 7 7 7 8 6 8 12 12 12 13 15 14 19 18 17 16 15 14 11 17 15 13 14 13 13 11 8 9 10 10 7
4 12 8 8 9 8 13 4 8 2 8 5 7 1 6 8 11 12 12 11 10 8 9 4 9 14 12 13 14 15 16 16 17 16 15 16 15 14 14 15 15 15 14 10 11 12 11 10 7
16 17 15 9 10 11 15 14 11 5 5 2 4 7 12 16 18 16 16 14 12 12 9 7 7 13 12 11 12 16 14 19 18 16 17 17 17 15 16 15 15 15 14 13 13 12 10 8 7
Wind_Direction
262 260 250 230 237 233 247 219 303 214 205 40 306 268 340 339 352 18 43 32 332 163 156 166 158 160 155 151 142 148 150 150 147 148 151 153 149 145 140 140 134 132 130 124 122 122 125 126 117
298 229 224 237 251 231 233 218 222 137 356 309 284 263 254 69 25 358 343 354 284 167 164 163 160 160 154 152 145 149 154 149 147 148 150 151 147 144 142 142 142 139 131 125 122 124 128 125 118
245 240 243 235 241 251 258 133 247 198 312 308 295 330 340 32 7 350 340 326 205 170 167 157 156 159 155 152 147 149 152 148 146 148 149 148 145 144 143 143 142 141 133 128 124 117 108 97 100
213 196 215 245 234 247 290 114 316 248 188 233 343 249 116 61 357 354 340 334 198 173 174 133 160 157 151 150 148 146 150 145 147 147 147 146 145 143 143 142 141 142 136 129 121 115 106 102 99
219 245 238 239 244 242 211 259 264 266 258 256 329 278 301 44 359 360 356 335 220 178 178 151 156 155 150 150 152 148 148 144 143 144 145 144 142 139 139 137 135 142 139 136 132 123 127 135 158
209 282 235 234 218 240 224 259 273 243 273 276 272 306 281 14 4 6 12 347 245 177 171 151 150 153 148 150 151 148 147 145 143 145 143 140 137 137 137 139 140 138 144 147 144 148 154 161 197
263 233 252 265 269 240 222 327 226 283 266 270 349 287 318 17 0 358 12 24 328 187 163 158 165 153 138 138 138 142 146 143 140 139 135 134 135 137 139 140 141 144 154 154 153 150 170 194 236
273 264 247 236 233 246 134 263 189 256 284 328 273 261 311 4 347 355 10 49 139 185 191 165 170 167 169 153 129 138 139 137 136 135 133 133 132 135 137 135 149 159 162 159 161 178 197 242 245
253 249 249 246 233 246 265 281 229 229 278 284 279 284 304 336 331 333 24 45 72 154 176 167 181 170 179 157 141 136 136 132 133 134 132 147 170 172 159 118 139 170 171 168 170 223 248 253 244
256 257 278 358 334 274 292 291 296 292 259 265 278 265 269 309 327 322 338 24 127 149 210 181 182 183 175 161 154 159 152 165 176 172 169 185 162 184 193 140 154 178 183 187 207 235 246 244 251
172 280 76 223 300 281 297 290 288 279 271 260 279 297 295 304 289 308 312 332 343 164 164 229 171 208 177 168 166 166 165 162 166 173 179 189 177 169 197 168 182 192 192 215 197 198 226 240 294
256 215 253 257 279 265 269 286 279 278 279 285 269 286 285 276 282 286 289 308 244 208 184 186 179 193 195 169 177 172 169 169 175 176 180 170 195 179 204 200 192 207 197 240 231 235 276 274 267
252 189 252 264 277 273 271 262 265 271 278 271 263 266 269 277 275 274 261 276 257 227 202 190 184 193 190 188 179 179 177 181 182 174 181 178 197 191 196 193 211 207 181 210 239 243 264 254 254
12 287 279 270 270 283 275 269 249 259 256 268 276 269 270 276 279 274 260 241 248 229 219 216 200 185 191 199 180 178 189 178 184 185 178 189 196 183 194 190 207 205 215 221 231 231 291 274 285
285 272 280 232 240 285 292 267 243 248 264 263 275 263 260 263 274 269 271 268 237 225 218 222 204 194 190 196 191 188 187 179 184 187 179 197 197 177 218 204 204 196 190 222 228 249 228 251 258
266 267 260 157 298 284 246 279 292 189 254 264 270 270 265 259 261 265 265 258 247 227 213 208 219 199 195 193 193 194 185 190 184 176 176 195 183 176 193 194 202 185 200 210 222 229 233 269 278
199 281 298 292 234 288 258 281 291 241 265 276 268 266 261 261 252 246 247 246 245 239 223 212 216 208 202 198 193 194 184 191 185 182 175 180 182 175 189 192 188 197 207 199 197 193 260 241 261
318 301 299 295 306 287 278 274 276 274 265 262 263 262 259 255 249 239 233 246 247 238 233 220 211 209 209 199 195 192 178 184 185 179 170 168 177 171 186 185 187 215 204 185 211 210 165 301 300
295 287 286 287 297 290 282 281 281 274 265 262 257 251 252 248 245 236 233 239 244 232 240 223 217 219 205 203 188 190 189 184 178 174 167 173 173 176 175 191 187 206 207 209 186 198 182 209 256
279 281 281 288 292 299 294 284 285 274 265 261 258 255 248 249 241 230 234 231 238 245 242 226 224 212 205 194 196 203 191 187 181 167 170 177 172 175 183 184 179 189 168 178 195 204 198 181 312
273 279 294 299 303 280 274 287 266 207 242 248 254 255 254 251 244 232 228 230 236 238 234 232 220 216 212 199 195 178 189 179 183 158 175 165 166 182 188 173 186 159 216 169 234 211 217 207 120
283 291 305 291 284 288 324 289 294 301 283 284 270 243 244 236 235 240 233 227 232 236 232 231 218 198 202 217 184 184 187 179 185 163 166 150 168 180 174 143 155 151 138 108 85 321 309 261 143
287 317 286 287 280 284 272 257 292 214 278 112 63 338 249 243 240 230 227 230 231 244 236 221 214 202 186 205 207 192 204 181 170 172 153 141 158 170 158 151 142 132 127 107 96 56 13 347 20
318 271 289 269 261 266 268 240 275 274 3 312 330 279 234 303 236 239 246 236 234 241 243 231 212 197 183 200 204 196 188 181 170 170 142 149 136 159 139 127 129 116 122 126 112 110 91 51 62
243 303 302 279 180 250 94 288 269 295 300 311 310 314 297 244 258 245 221 223 227 237 232 237 220 203 188 204 205 199 188 187 173 149 148 147 119 134 126 144 137 115 115 108 113 100 90 102 72
292 287 264 302 294 317 309 261 20 297 321 308 299 279 275 261 252 263 276 268 263 244 253 224 232 216 194 202 209 210 192 185 174 160 158 147 147 141 131 130 126 121 110 106 107 97 122 79 75
286 226 273 279 256 260 237 248 233 244 224 87 21 52 142 320 324 328 319 292 297 293 268 246 235 220 210 200 206 212 193 179 157 151 136 155 130 127 135 140 124 125 116 113 102 96 79 80 72
249 299 248 226 266 267 266 290 264 165 80 104 100 95 156 295 313 322 312 314 320 301 290 273 245 228 210 209 215 215 191 177 150 140 137 128 139 144 138 132 131 133 123 115 112 107 84 80 77
234 245 245 275 273 272 291 302 53 291 295 325 312 279 312 318 307 314 314 318 315 303 284 274 247 236 215 210 212 214 192 163 140 139 144 135 146 138 136 141 133 130 118 113 104 97 93 86 83
265 250 250 249 253 251 282 277 304 314 294 23 259 268 300 313 303 296 297 298 304 300 287 277 246 243 216 209 208 211 184 159 153 140 133 129 138 141 131 134 133 127 125 117 98 93 89 85 78